Погода в Рассыпном

Россия / Оренбургская область     51°36′03″N   53°37′35″E
темп.,
°C
ветер,
м/с
пор.,
м/с
влажн.,
%
обл.,
%
осадки,
мм/ч
давл.,
гПа
погр.,
м
24 сентября, пт
пт2423:00+18юв81424100 0.0 1019901
02:00+14юв71344100 0.3 1020917
05:00+15юв81427100 0.4 1020865
08:00+14юв9163685 0.0 1020771
11:00+14юв81434100 0.0 1020789
14:00+15юв81328100 0.0 1019925
17:00+17вюв71324100 0.0 10171143
20:00+18вюв81419100 0.0 1015942
25 сентября, сб
сб2523:00+17вюв91621100 0.0 1014839
02:00+16юв101724100 0.0 1012789
05:00+15юв81526100 0.0 1011694
08:00+15юв71325100 0.0 1010606
11:00+18юв6821100 0.0 1009807
14:00+14ююв61040100 0.1 1010713
17:00+12юв4982100 1.2 1010426
20:00+13юв388094 0.0 1009249
26 сентября, вс
вс2623:00+12ююв1274100 0.0 100912
02:00+11ююз2377100 0.0 100846
05:00+10зюз4785100 0.0 1008213
08:00+11з4976100 0.0 1008287
11:00+15з455259 0.0 1009837
14:00+18з553747 0.0 10081574
17:00+19з443563 0.0 10072002
20:00+15сз344499 0.0 100780
27 сентября, пн
пн2723:00+14сз2248100 0.0 100720
02:00+14зсз1152100 0.0 100615
05:00+13всв3550100 0.0 1006154
08:00+12в6948100 0.0 1006466
11:00+11всв7863100 0.0 1007586
14:00+12в7842100 0.0 1008873
17:00+10всв7847100 0.0 10091026
20:00+6всв81173100 0.0 1012706
28 сентября, вт
вт2823:00+6всв51075100 0.1 1013812
02:00+6ссв596687 0.0 1014673
05:00+4св511698 0.0 1016508
08:00+4св511565 0.0 1017467
11:00+8св67435 0.0 10191094
14:00+11всв56375 0.0 10201521
17:00+11св453298 0.0 10201758
20:00+8ссв3636100 0.0 1021128